Time,TemperatureF,DewpointF,PressureIn,WindDirection,WindDirectionDegrees,WindSpeedMPH,WindSpeedGustMPH,Humidity,HourlyPrecipIn,Conditions,Clouds,dailyrainin,SolarRadiationWatts/m^2,SoftwareType,DateUTC
2013-09-28 00:04:00,59.0,57.0,-100.00,SSW,202,0.0,0.0,94,0.00,,,0.00,0.000000,,2013-09-28 04:04:00,
2013-09-28 00:43:00,59.0,58.0,-100.00,WSW,256,0.0,0.0,96,0.00,,,0.00,0.000000,,2013-09-28 04:43:00,
2013-09-28 00:54:00,59.0,58.0,-100.00,WSW,256,0.0,0.0,96,0.00,,,0.00,0.000000,,2013-09-28 04:54:00,
2013-09-28 01:03:00,59.0,58.0,-100.00,WSW,256,0.0,0.0,96,0.00,,,0.00,0.000000,,2013-09-28 05:03:00,
2013-09-28 01:43:00,58.0,57.0,-100.00,SSW,198,0.0,0.0,96,0.00,,,0.00,0.000000,,2013-09-28 05:43:00,
2013-09-28 01:53:00,58.0,57.0,-100.00,SSW,198,0.0,0.0,96,0.00,,,0.00,0.000000,,2013-09-28 05:53:00,
2013-09-28 02:02:00,58.0,57.0,-100.00,SSW,198,0.0,0.0,96,0.00,,,0.00,0.000000,,2013-09-28 06:02:00,
2013-09-28 02:42:00,57.0,56.0,-100.00,West,261,0.0,0.0,97,0.00,,,0.00,0.000000,,2013-09-28 06:42:00,
2013-09-28 02:52:00,57.0,56.0,-100.00,West,261,0.0,0.0,97,0.00,,,0.00,0.000000,,2013-09-28 06:52:00,
2013-09-28 03:02:00,57.0,56.0,-100.00,West,261,0.0,0.0,97,0.00,,,0.00,0.000000,,2013-09-28 07:02:00,
2013-09-28 03:42:00,56.0,55.0,-100.00,SW,234,0.0,0.0,98,0.00,,,0.00,0.000000,,2013-09-28 07:42:00,
2013-09-28 03:52:00,56.0,55.0,-100.00,SW,234,0.0,0.0,98,0.00,,,0.00,0.000000,,2013-09-28 07:52:00,
2013-09-28 04:02:00,56.0,55.0,-100.00,SW,234,0.0,0.0,98,0.00,,,0.00,0.000000,,2013-09-28 08:02:00,
2013-09-28 04:43:00,56.0,55.0,-100.00,SSE,163,0.0,0.0,97,0.00,,,0.00,0.000000,,2013-09-28 08:43:00,
2013-09-28 04:53:00,56.0,55.0,-100.00,SSE,163,0.0,0.0,97,0.00,,,0.00,0.000000,,2013-09-28 08:53:00,
2013-09-28 05:02:00,56.0,55.0,-100.00,SSE,163,0.0,0.0,97,0.00,,,0.00,0.000000,,2013-09-28 09:02:00,
2013-09-28 05:43:00,56.0,55.0,-100.00,West,279,0.0,0.0,98,0.00,,,0.00,0.000000,,2013-09-28 09:43:00,
2013-09-28 05:54:00,56.0,55.0,-100.00,West,279,0.0,0.0,98,0.00,,,0.00,0.000000,,2013-09-28 09:54:00,
2013-09-28 06:03:00,56.0,55.0,-100.00,West,279,0.0,0.0,98,0.00,,,0.00,0.000000,,2013-09-28 10:03:00,
2013-09-28 06:43:00,55.0,54.0,-100.00,West,259,0.0,0.0,97,0.00,,,0.00,0.000000,,2013-09-28 10:43:00,
2013-09-28 06:52:00,55.0,54.0,-100.00,West,259,0.0,0.0,97,0.00,,,0.00,0.000000,,2013-09-28 10:52:00,
2013-09-28 07:03:00,55.0,54.0,-100.00,West,259,0.0,0.0,97,0.00,,,0.00,0.000000,,2013-09-28 11:03:00,
2013-09-28 07:43:00,55.0,54.0,-100.00,WSW,243,0.0,0.0,98,0.00,,,0.00,0.000000,,2013-09-28 11:43:00,
2013-09-28 07:52:00,55.0,54.0,-100.00,WSW,243,0.0,0.0,98,0.00,,,0.00,0.000000,,2013-09-28 11:52:00,
2013-09-28 08:01:00,55.0,54.0,-100.00,WSW,243,0.0,0.0,98,0.00,,,0.00,0.000000,,2013-09-28 12:01:00,
2013-09-28 08:42:00,55.0,54.0,-100.00,South,177,0.0,0.0,97,0.00,,,0.00,12.000000,,2013-09-28 12:42:00,
2013-09-28 08:52:00,55.0,54.0,-100.00,South,177,0.0,0.0,97,0.00,,,0.00,12.000000,,2013-09-28 12:52:00,
2013-09-28 09:02:00,55.0,54.0,-100.00,South,177,0.0,0.0,97,0.00,,,0.00,12.000000,,2013-09-28 13:02:00,
2013-09-28 09:42:00,61.0,56.0,-100.00,ENE,71,0.0,0.0,85,0.00,,,0.00,95.000000,,2013-09-28 13:42:00,
2013-09-28 09:52:00,61.0,56.0,-100.00,ENE,71,0.0,0.0,85,0.00,,,0.00,95.000000,,2013-09-28 13:52:00,
2013-09-28 10:02:00,61.0,56.0,-100.00,ENE,71,0.0,0.0,85,0.00,,,0.00,95.000000,,2013-09-28 14:02:00,
2013-09-28 10:42:00,65.0,56.0,-100.00,SE,126,0.0,0.0,74,0.00,,,0.00,268.000000,,2013-09-28 14:42:00,
2013-09-28 10:52:00,65.0,56.0,-100.00,SE,126,0.0,0.0,74,0.00,,,0.00,268.000000,,2013-09-28 14:52:00,
2013-09-28 11:02:00,65.0,56.0,-100.00,SE,126,0.0,0.0,74,0.00,,,0.00,268.000000,,2013-09-28 15:02:00,
2013-09-28 11:05:00,69.0,57.0,-100.00,East,92,0.0,0.0,65,0.00,,,0.00,489.000000,,2013-09-28 15:05:00,
2013-09-28 11:44:00,69.0,57.0,-100.00,East,92,0.0,0.0,65,0.00,,,0.00,489.000000,,2013-09-28 15:44:00,
2013-09-28 11:54:00,69.0,57.0,-100.00,East,92,0.0,0.0,65,0.00,,,0.00,489.000000,,2013-09-28 15:54:00,
2013-09-28 12:43:00,72.0,56.0,-100.00,SE,128,0.0,0.0,58,0.00,,,0.00,616.000000,,2013-09-28 16:43:00,
2013-09-28 12:54:00,72.0,56.0,-100.00,SE,128,0.0,0.0,58,0.00,,,0.00,616.000000,,2013-09-28 16:54:00,
2013-09-28 13:03:00,72.0,56.0,-100.00,SE,128,0.0,0.0,58,0.00,,,0.00,616.000000,,2013-09-28 17:03:00,
2013-09-28 13:43:00,74.0,58.0,-100.00,NNE,26,0.0,0.0,58,0.00,,,0.00,642.000000,,2013-09-28 17:43:00,
2013-09-28 13:52:00,74.0,58.0,-100.00,NNE,26,0.0,0.0,58,0.00,,,0.00,642.000000,,2013-09-28 17:52:00,
2013-09-28 14:02:00,74.0,58.0,-100.00,NNE,26,0.0,0.0,58,0.00,,,0.00,642.000000,,2013-09-28 18:02:00,
2013-09-28 14:42:00,75.0,57.0,-100.00,NE,55,0.0,0.0,54,0.00,,,0.00,693.000000,,2013-09-28 18:42:00,
2013-09-28 14:52:00,75.0,57.0,-100.00,NE,55,0.0,0.0,54,0.00,,,0.00,693.000000,,2013-09-28 18:52:00,
2013-09-28 15:02:00,75.0,57.0,-100.00,NE,55,0.0,0.0,54,0.00,,,0.00,693.000000,,2013-09-28 19:02:00,
2013-09-28 15:42:00,76.0,58.0,-100.00,NE,40,0.0,0.0,53,0.00,,,0.00,648.000000,,2013-09-28 19:42:00,
2013-09-28 15:52:00,76.0,58.0,-100.00,NE,40,0.0,0.0,53,0.00,,,0.00,648.000000,,2013-09-28 19:52:00,
2013-09-28 16:03:00,76.0,58.0,-100.00,NE,40,0.0,0.0,53,0.00,,,0.00,648.000000,,2013-09-28 20:03:00,
2013-09-28 16:43:00,78.0,57.0,-100.00,North,359,0.0,0.0,49,0.00,,,0.00,573.000000,,2013-09-28 20:43:00,
2013-09-28 16:53:00,78.0,57.0,-100.00,North,359,0.0,0.0,49,0.00,,,0.00,573.000000,,2013-09-28 20:53:00,
2013-09-28 17:02:00,78.0,57.0,-100.00,North,359,0.0,0.0,49,0.00,,,0.00,573.000000,,2013-09-28 21:02:00,
2013-09-28 17:44:00,78.0,57.0,-100.00,WNW,295,0.0,0.0,48,0.00,,,0.00,414.000000,,2013-09-28 21:44:00,
2013-09-28 17:55:00,78.0,57.0,-100.00,WNW,295,0.0,0.0,48,0.00,,,0.00,414.000000,,2013-09-28 21:55:00,
2013-09-28 18:04:00,78.0,57.0,-100.00,WNW,295,0.0,0.0,48,0.00,,,0.00,414.000000,,2013-09-28 22:04:00,
2013-09-28 18:43:00,76.0,58.0,-100.00,West,279,0.0,0.0,53,0.00,,,0.00,135.000000,,2013-09-28 22:43:00,
2013-09-28 18:54:00,76.0,58.0,-100.00,West,279,0.0,0.0,53,0.00,,,0.00,135.000000,,2013-09-28 22:54:00,
2013-09-28 19:03:00,76.0,58.0,-100.00,West,279,0.0,0.0,53,0.00,,,0.00,135.000000,,2013-09-28 23:03:00,
2013-09-28 19:43:00,70.0,58.0,-100.00,WNW,292,0.0,0.0,66,0.00,,,0.00,54.000000,,2013-09-28 23:43:00,
2013-09-28 19:53:00,70.0,58.0,-100.00,WNW,292,0.0,0.0,66,0.00,,,0.00,54.000000,,2013-09-28 23:53:00,
2013-09-28 20:02:00,70.0,58.0,-100.00,WNW,292,0.0,0.0,66,0.00,,,0.00,54.000000,,2013-09-29 00:02:00,
2013-09-28 20:43:00,66.0,60.0,-100.00,SSW,202,0.0,0.0,81,0.00,,,0.00,4.000000,,2013-09-29 00:43:00,
2013-09-28 20:52:00,66.0,60.0,-100.00,SSW,202,0.0,0.0,81,0.00,,,0.00,4.000000,,2013-09-29 00:52:00,
2013-09-28 21:02:00,66.0,60.0,-100.00,SSW,202,0.0,0.0,81,0.00,,,0.00,4.000000,,2013-09-29 01:02:00,
2013-09-28 21:43:00,62.0,59.0,-100.00,SSW,204,0.0,0.0,91,0.00,,,0.00,0.000000,,2013-09-29 01:43:00,
2013-09-28 21:52:00,62.0,59.0,-100.00,SSW,204,0.0,0.0,91,0.00,,,0.00,0.000000,,2013-09-29 01:52:00,
2013-09-28 22:03:00,62.0,59.0,-100.00,SSW,204,0.0,0.0,91,0.00,,,0.00,0.000000,,2013-09-29 02:03:00,
2013-09-28 22:43:00,60.0,58.0,-100.00,SW,234,0.0,0.0,93,0.00,,,0.00,0.000000,,2013-09-29 02:43:00,
2013-09-28 22:53:00,60.0,58.0,-100.00,SW,234,0.0,0.0,93,0.00,,,0.00,0.000000,,2013-09-29 02:53:00,
2013-09-28 23:03:00,60.0,58.0,-100.00,SW,234,0.0,0.0,93,0.00,,,0.00,0.000000,,2013-09-29 03:03:00,
2013-09-28 23:44:00,59.0,58.0,-100.00,West,279,0.0,0.0,95,0.00,,,0.00,0.000000,,2013-09-29 03:44:00,
2013-09-28 23:55:00,59.0,58.0,-100.00,West,279,0.0,0.0,95,0.00,,,0.00,0.000000,,2013-09-29 03:55:00,